GEFSSE_con_probscp_030.txt.gz
Probability
0 0 0 0 0 0 0 0 0 0 0 0 0 0 0 0 0 0 0 0 0 0 0 0 0 0 0 0 0 0 0 0 0 0 0 0 0 0 0 0 0 0 0
0 0 0 0 0 0 0 0 0 0 0 0 0 0 0 0 0 0 0 0 0 0 0 0 0 0 0 0 0 0 0 0 0 0 0 0 0 0 0 0 0 0 0
0 0 0 0 0 0 0 0 0 0 0 0 0 0 0 0 0 0 0 0 0 0 0 0 0 0 0 0 0 0 0 0 0 0 0 0 0 0 0 0 0 0 0
0 0 0 0 0 0 0 0 0 0 0 0 0 0 0 0 0 0 0 0 0 0 0 0 0 0 0 0 0 0 0 0 0 0 0 0 0 0 0 0 0 0 0
0 0 0 0 0 0 0 0 0 0 0 0 0 0 0 0 0 0 0 0 0 0 0 0 0 0 0 0 0 0 0 0 0 0 0 0 0 0 0 0 0 0 0
0 0 0 0 0 0 0 0 0 0 0 0 0 0 0 0 0 0 0 0 0 0 0 0 0 0 0 0 0 0 0 0 0 0 0 0 0 0 0 0 0 0 0
0 0 0 0 0 0 0 0 0 0 0 0 0 0 0 0 0 0 0 0 0 0 0 0 0 0 0 0 0 0 0 0 0 0 0 0 0 0 0 0 0 0 0
0 0 0 0 0 0 0 0 0 0 0 0 0 0 0 0 0 0 0 0 0 0 0 0 0 0 0 0 0 0 0 0 0 0 0 0 0 0 0 0 0 0 0
0 0 0 0 0 0 0 0 0 0 0 0 0 0 0 0 0 0 0 0 0 0 0 0 0 0 0 0 0 0 0 0 0 0 0 0 0 0 0 0 0 0 0
0 0 0 0 0 0 0 0 0 0 0 0 0 0 0 0 0 0 0 0 0 0 0 0 0 0 0 0 0 0 0 0 0 0 0 0 0 0 0 0 0 0 0
0 0 0 0 0 0 0 0 0 0 0 0 0 0 0 0 0 0 0 0 0 0 0 0 0 0 0 0 0 0 0 0 0 0 0 1 1 1 0 0 0 0 0
0 0 0 0 0 0 0 0 0 0 0 0 0 0 0 0 0 0 0 0 0 0 0 0 0 0 0 0 0 0 0 0 0 0 1 3 3 1 0 0 0 0 0
0 0 0 0 0 0 0 0 0 0 0 0 0 0 0 0 0 0 0 0 0 0 0 0 0 0 0 0 0 0 0 0 0 0 2 4 3 1 0 0 0 0 0
1 0 0 1 1 0 0 0 0 0 0 0 0 0 0 0 0 0 0 0 0 0 0 0 0 0 0 0 0 0 0 0 0 1 4 6 5 2 1 1 1 1 0
3 2 2 3 2 1 0 0 0 0 0 0 1 1 1 0 0 0 0 1 1 1 0 0 0 0 0 0 0 0 0 0 0 1 5 12 12 7 3 2 3 2 2
7 7 8 9 7 6 3 1 0 1 2 2 5 8 8 6 6 5 4 4 4 4 3 1 0 0 0 0 1 1 2 1 2 5 9 16 20 14 8 6 5 6 7
16 17 19 18 17 19 18 12 6 3 5 10 18 26 28 24 22 21 16 12 10 10 9 5 2 0 1 1 2 4 5 6 10 15 18 21 24 23 18 13 9 10 14
34 37 37 33 33 38 42 39 28 22 24 32 43 55 57 49 44 41 34 27 23 21 17 10 6 6 6 5 6 8 12 18 26 31 30 30 30 28 26 25 21 20 21
58 62 64 59 55 59 65 64 59 56 57 62 72 81 80 72 65 60 53 46 41 36 29 21 20 21 20 16 10 11 17 25 37 42 38 34 33 29 25 30 32 26 22
78 83 87 83 78 77 79 79 79 79 80 83 88 91 90 86 80 75 69 61 54 49 41 35 35 36 35 28 15 10 14 21 34 42 37 30 27 23 21 26 31 28 25
83 89 94 93 90 88 87 86 85 85 87 89 88 86 84 84 81 77 74 68 62 58 50 43 42 39 35 29 18 9 6 9 22 34 31 24 20 17 17 22 32 40 45
75 81 89 91 92 91 90 89 88 89 89 89 83 76 71 68 65 62 62 62 61 58 51 44 39 31 24 20 15 8 2 3 11 20 24 24 20 16 14 19 35 53 59
73 78 83 87 90 91 91 90 90 90 90 88 80 69 59 51 46 44 42 43 44 44 41 35 27 18 12 9 8 8 7 7 8 12 18 24 26 21 13 14 27 43 51
75 76 80 83 86 88 89 88 89 90 91 88 79 66 53 43 36 31 27 25 26 26 25 22 15 9 5 3 5 10 14 16 17 14 14 19 25 23 15 13 19 31 39
67 68 72 77 80 80 80 82 86 90 90 86 76 64 55 45 33 23 19 17 16 16 15 14 11 7 4 4 6 11 16 20 22 19 12 12 18 18 17 19 24 30 34
58 61 65 70 74 73 73 77 83 88 89 83 73 65 58 48 33 20 16 14 12 11 11 11 9 7 6 6 8 12 15 17 20 18 11 8 12 15 19 27 32 32 33

GEFSSE_con_probscp_036.txt.gz
Probability
0 0 0 0 0 0 0 0 0 0 0 0 0 0 0 0 0 0 0 0 0 0 0 0 0 0 0 0 0 0 0 0 0 0 0 0 0 0 0 0 0 0 0
0 0 0 0 0 0 0 0 0 0 0 0 0 0 0 0 0 0 0 0 0 0 0 0 0 0 0 0 0 0 0 0 0 0 0 0 0 0 0 0 0 0 0
0 0 0 0 0 0 0 0 0 0 0 0 0 0 0 0 0 0 0 0 0 0 0 0 0 0 0 0 0 0 0 0 0 0 0 0 0 0 0 0 0 0 0
0 0 0 0 0 0 0 0 0 0 0 0 0 0 0 0 0 0 0 0 0 0 0 0 0 0 0 0 0 0 0 0 0 0 0 0 0 0 0 0 0 0 0
0 0 0 0 0 0 0 0 0 0 0 0 0 0 0 0 0 0 0 0 0 0 0 0 0 0 0 0 0 0 0 0 0 0 0 0 0 1 1 0 0 0 0
0 0 0 0 0 0 0 0 0 0 0 0 0 0 0 0 0 0 0 0 0 0 0 0 0 0 0 0 0 0 0 0 0 0 0 0 1 4 4 2 1 1 0
1 0 0 0 0 0 0 0 0 0 0 0 0 0 0 0 0 0 0 0 0 0 0 0 0 0 0 0 0 0 0 0 0 0 0 0 2 6 7 4 3 2 1
6 4 1 0 0 0 0 0 0 0 0 0 0 0 0 0 0 0 0 0 0 0 0 0 0 0 0 0 0 0 0 0 0 0 0 1 6 14 16 9 4 2 1
18 12 4 0 0 0 0 0 0 0 0 0 0 0 0 0 0 0 0 0 0 0 0 0 0 0 0 0 0 0 0 0 0 0 0 3 15 30 30 17 6 2 1
27 19 7 1 1 0 0 0 0 0 0 0 0 0 0 0 0 0 0 1 1 0 0 0 0 0 0 0 0 0 0 0 0 0 0 8 30 48 42 24 10 3 1
30 27 15 5 3 1 0 1 0 0 0 0 0 1 0 0 0 2 9 16 16 11 7 4 2 0 0 0 2 3 2 0 0 0 3 20 50 63 51 31 15 6 3
34 37 31 21 12 4 2 3 2 1 2 1 2 5 5 2 0 5 25 45 44 31 19 10 4 1 0 0 3 5 3 0 0 0 9 37 67 75 60 40 22 9 5
47 47 50 49 35 15 7 8 5 5 8 7 9 14 14 8 3 11 38 63 64 49 31 16 12 10 5 3 5 6 6 4 3 5 22 55 78 80 68 52 34 18 11
67 63 68 76 66 43 30 27 19 15 20 25 31 34 31 27 21 24 49 69 66 57 48 35 31 29 20 13 9 8 11 11 8 14 40 71 87 86 78 68 54 38 26
85 81 86 93 89 77 68 61 47 37 40 52 64 66 60 58 54 53 70 81 68 59 65 64 54 48 42 30 16 11 16 17 16 27 55 82 93 92 90 85 76 62 51
94 93 97 100 98 96 94 88 77 66 66 75 86 90 88 85 82 84 91 92 79 69 76 81 71 60 53 41 25 19 24 28 33 47 69 88 97 97 97 95 91 81 74
97 98 99 100 100 100 100 98 92 87 84 89 95 98 98 97 96 98 100 98 92 86 86 86 78 65 52 42 34 28 31 43 55 68 81 92 98 99 99 99 98 93 88
99 100 100 100 100 100 100 99 97 94 94 97 99 100 100 99 99 99 100 99 98 95 91 87 80 69 57 48 40 34 35 46 58 69 79 90 96 97 98 99 99 97 94
100 100 100 100 100 100 100 99 98 97 98 100 100 100 100 100 100 100 99 99 99 97 92 89 85 77 67 58 46 37 35 38 43 48 60 74 84 89 92 96 98 98 97
100 100 100 100 100 100 100 100 99 99 99 100 100 100 100 100 100 100 99 98 98 97 93 91 87 80 73 63 47 36 31 28 27 33 45 61 74 81 82 86 93 96 95
100 100 100 100 100 100 100 100 100 100 100 100 100 99 100 100 100 99 97 96 96 94 91 87 81 75 69 61 49 34 26 22 19 26 47 65 74 76 71 70 80 87 88
98 98 99 100 100 100 100 100 100 100 100 100 100 100 100 100 99 98 94 90 89 88 85 80 73 68 64 59 51 37 27 21 16 21 43 66 77 77 66 56 61 70 73
86 88 93 98 100 100 100 100 100 100 99 99 99 99 100 99 96 94 90 86 83 81 78 72 67 63 60 55 47 38 29 22 16 16 25 44 64 70 60 45 41 47 52
63 69 80 89 95 98 99 99 99 99 98 98 98 98 98 96 91 87 84 81 79 76 71 63 59 56 52 44 37 33 30 25 19 12 9 18 35 46 43 31 25 28 33
36 44 57 72 83 90 94 96 97 97 97 97 97 97 97 95 89 82 79 79 76 72 66 58 51 48 40 31 26 27 28 26 19 9 3 4 11 18 21 19 17 16 16
19 25 38 57 74 82 88 93 96 97 97 97 97 97 97 95 89 82 79 79 76 71 65 56 48 43 34 24 22 26 28 24 16 8 3 1 2 5 10 14 13 8 6

GEFSSE_con_probscp_042.txt.gz
Probability
1 2 3 3 3 3 3 3 3 3 3 3 3 3 3 3 3 3 3 3 3 3 3 3 3 2 2 2 2 2 2 2 3 3 3 3 3 3 3 3 2 1 0
1 2 3 3 3 3 3 3 3 3 3 3 3 2 2 2 2 3 3 3 3 3 3 3 3 1 1 1 1 1 1 1 2 3 3 3 3 3 3 3 2 1 0
0 1 3 3 3 2 2 3 3 3 3 3 2 2 2 2 1 1 2 3 3 3 3 3 3 1 1 1 1 1 1 1 2 2 3 3 3 3 3 3 2 1 1
0 1 2 3 3 3 3 3 3 3 3 3 3 2 2 2 2 1 2 3 2 1 1 2 2 2 2 2 2 2 2 3 3 3 2 1 1 3 3 3 3 2 2
1 1 3 3 3 3 3 3 3 3 3 3 3 3 3 3 3 3 3 2 1 0 0 1 1 2 3 3 3 3 3 3 3 3 2 1 1 2 3 3 3 3 3
2 3 3 4 4 3 3 3 3 3 3 3 3 3 3 3 3 3 3 2 1 0 1 1 1 2 3 3 3 3 3 3 3 2 1 0 1 2 3 3 3 3 3
3 3 5 7 7 5 5 4 4 3 3 3 3 3 3 3 3 3 3 3 1 1 2 2 2 3 3 3 3 3 3 3 3 1 0 0 0 2 3 3 3 3 3
3 3 6 10 12 12 10 8 7 5 3 3 3 3 3 3 3 3 3 3 3 3 3 3 3 3 3 3 3 3 3 3 3 1 0 0 1 2 3 4 3 3 3
4 4 8 12 15 17 16 13 10 6 4 3 3 3 3 3 3 3 3 3 3 3 3 3 3 3 3 3 3 3 3 3 3 2 1 1 1 3 4 6 6 6 5
3 5 9 12 15 17 15 13 10 6 4 3 3 3 3 3 3 3 3 3 3 3 3 3 3 3 3 3 3 3 3 3 3 3 3 2 3 3 6 11 17 18 16
4 7 11 13 14 15 12 9 7 4 3 3 3 3 3 3 3 3 3 3 3 3 4 4 5 4 3 3 3 3 3 3 3 3 3 3 3 5 9 19 32 35 32
8 9 12 15 16 14 11 7 5 4 3 3 3 3 3 3 3 3 3 3 3 3 4 6 6 5 4 3 3 3 3 3 3 4 4 5 7 10 19 33 47 52 49
17 15 15 18 19 15 9 7 6 5 4 3 3 3 3 3 3 3 3 3 3 3 4 5 6 6 5 4 3 3 3 3 4 4 6 11 17 26 40 54 63 64 62
31 25 20 22 22 15 9 7 8 6 4 3 3 4 4 4 4 3 3 3 4 6 9 9 8 7 6 5 4 4 4 4 4 5 9 18 32 49 65 75 78 75 72
52 43 33 30 26 19 12 10 10 8 5 6 6 8 12 14 10 7 7 8 11 17 22 21 17 13 11 9 7 7 6 6 6 7 11 21 38 60 78 87 90 86 81
73 66 55 47 42 36 30 29 28 23 19 19 18 19 27 33 29 23 21 23 27 33 38 37 32 26 21 17 14 12 12 11 10 11 13 18 30 50 71 87 95 95 90
86 84 79 71 67 64 62 61 59 54 47 44 42 41 48 56 56 51 48 49 52 54 52 48 43 37 28 22 17 14 14 14 15 14 13 15 21 34 56 78 92 95 93
91 93 92 89 87 84 84 84 83 79 74 68 66 67 72 77 79 77 76 77 77 73 64 53 46 40 31 21 15 11 10 11 12 11 10 11 15 23 40 61 79 87 88
89 91 93 93 92 90 89 89 89 89 86 80 76 77 81 86 89 91 91 91 89 81 70 60 52 43 33 23 15 9 7 6 5 5 4 6 9 14 23 38 56 69 74
86 87 88 89 88 87 87 87 90 91 90 84 76 72 74 81 88 93 94 92 88 80 71 63 54 43 33 24 17 11 7 3 2 2 1 2 4 7 10 18 31 43 49
79 80 82 82 81 82 83 87 90 93 92 87 78 71 70 77 85 91 91 88 84 77 69 59 49 38 28 21 16 12 6 2 1 1 1 1 2 3 5 9 16 22 25
62 65 68 69 70 72 77 83 88 89 90 87 82 75 73 77 82 85 85 82 77 70 62 52 43 35 25 17 14 12 7 3 1 1 1 1 2 3 3 4 8 11 12
40 43 46 48 49 52 60 69 75 77 78 80 79 75 75 78 80 79 79 76 68 63 56 46 37 30 22 15 13 12 9 4 1 1 1 1 2 3 2 1 3 4 5
24 27 30 31 32 34 40 48 55 58 60 63 66 67 69 74 76 76 75 70 63 58 52 44 34 26 20 15 13 12 9 4 2 1 0 0 1 2 2 1 1 1 1
18 21 24 26 26 28 30 33 37 40 42 44 47 51 56 61 66 68 68 65 59 53 47 42 33 25 19 15 12 9 6 2 2 1 0 0 0 1 1 0 0 0 0
19 20 23 26 27 27 27 28 29 30 31 33 36 39 44 50 55 58 61 61 57 49 43 39 31 22 17 14 10 7 3 1 1 1 0 0 0 0 0 0 0 0 0

GEFSSE_con_probscp_048.txt.gz
Probability
0 0 0 0 0 0 0 0 0 0 0 0 0 0 0 0 0 0 0 0 0 0 0 0 0 0 0 0 0 0 0 0 0 0 0 0 0 0 0 0 0 0 0
0 0 0 0 0 0 0 0 0 0 0 0 0 0 0 0 0 0 0 0 0 0 0 0 0 0 0 0 0 0 0 0 0 0 0 0 0 0 0 0 0 0 0
0 0 0 0 0 0 0 0 0 0 0 0 0 0 0 0 0 0 0 0 0 0 0 0 0 0 0 0 0 0 0 0 0 0 0 0 0 0 0 0 0 0 0
0 0 0 0 0 0 0 0 0 0 0 0 0 0 0 0 0 0 0 0 0 0 0 0 0 0 0 0 0 0 0 0 0 0 0 0 0 0 0 0 0 0 0
0 0 0 0 0 0 0 0 0 0 0 0 0 0 0 0 0 0 0 0 0 0 0 0 0 0 0 0 0 0 0 0 0 0 0 0 0 0 0 0 0 0 0
0 0 1 1 1 1 1 1 0 0 0 0 0 0 0 0 0 0 0 0 0 0 0 0 0 0 0 0 0 0 0 0 0 0 0 0 0 0 0 0 0 0 0
0 0 2 4 4 3 3 2 1 0 0 0 0 0 0 0 0 0 0 0 0 0 0 0 0 0 0 0 0 0 0 0 0 0 0 0 0 0 0 0 0 0 0
0 0 1 4 6 6 6 3 1 0 0 0 0 0 0 0 0 0 0 0 0 0 0 0 0 0 0 0 0 0 0 0 0 0 0 0 0 0 0 0 0 0 0
0 0 0 2 5 7 7 5 3 2 1 1 0 0 0 0 0 0 0 0 0 0 0 0 0 0 0 0 0 0 0 0 0 0 0 0 0 0 0 0 0 0 0
0 0 1 2 4 6 8 9 8 7 6 4 2 1 0 0 0 0 0 0 0 0 0 0 0 0 0 0 0 0 0 0 0 0 0 0 0 0 0 0 0 0 1
0 0 2 3 5 6 9 11 12 13 12 9 6 4 2 1 0 0 0 0 0 0 0 0 0 0 0 0 0 0 0 0 0 0 0 0 0 0 0 0 0 0 1
0 0 2 5 8 11 12 13 14 16 15 13 10 7 5 3 1 1 1 0 0 0 0 0 0 0 0 0 0 0 0 0 0 0 0 0 0 1 1 0 0 0 1
0 0 4 9 13 17 19 19 22 25 23 20 16 13 11 9 6 5 4 2 1 1 0 1 1 0 0 1 1 0 0 0 0 0 0 0 0 1 2 1 1 0 0
1 2 7 16 22 26 28 29 32 37 36 33 29 27 25 22 17 13 10 7 5 3 2 3 3 2 3 4 3 2 0 0 0 0 0 0 0 1 2 3 2 1 0
5 6 14 26 34 39 39 36 37 42 43 40 37 39 42 40 32 23 18 14 10 7 7 8 8 8 10 12 9 5 2 1 1 1 1 0 0 1 2 2 2 2 2
15 16 22 35 47 51 46 38 35 37 37 33 30 35 45 50 46 37 28 22 18 16 16 18 17 16 18 17 12 8 6 5 3 2 1 0 0 0 1 2 3 5 8
31 29 30 41 52 53 45 36 32 29 27 24 21 22 34 46 50 46 38 33 32 33 32 32 29 24 23 19 14 10 9 7 5 2 1 1 1 1 1 3 6 9 14
43 41 42 49 55 51 42 34 30 26 24 24 22 23 30 42 50 52 49 48 52 54 51 47 42 35 31 26 19 13 10 8 6 3 2 2 2 2 2 5 9 14 17
46 48 51 57 60 54 46 40 38 37 37 36 36 37 40 47 55 60 61 63 68 72 66 60 55 49 41 33 26 18 12 9 7 4 3 3 4 4 3 5 9 15 19
45 47 50 53 55 54 51 50 50 52 53 52 50 49 48 53 60 67 71 72 77 79 75 68 62 53 43 34 26 19 14 10 7 6 5 5 5 5 5 4 7 13 17
37 38 38 38 40 42 45 48 51 54 56 55 52 50 49 51 59 66 70 74 77 78 74 68 59 48 38 31 24 16 11 8 7 7 8 7 6 6 6 4 5 9 13
21 21 22 24 24 26 31 35 38 40 42 42 41 39 38 40 45 51 58 66 71 72 69 62 54 44 34 28 22 15 9 7 6 7 8 8 5 5 6 5 4 7 9
7 7 9 11 11 12 18 23 23 22 22 22 22 22 22 24 27 32 41 51 59 64 62 56 49 42 33 26 20 15 11 8 6 5 5 5 3 3 4 4 3 4 6
1 2 3 4 5 6 10 12 11 9 8 8 8 9 9 11 14 19 27 36 44 50 51 49 46 42 34 27 20 14 12 9 6 2 2 1 1 1 1 1 1 2 3
1 1 2 4 5 6 8 8 5 3 2 2 2 2 2 4 6 10 15 21 26 31 34 37 41 41 36 28 20 13 10 8 6 3 1 0 0 0 0 0 0 0 1
2 3 5 7 7 8 10 9 4 1 0 0 0 0 0 0 1 4 8 10 13 17 22 28 34 39 36 28 20 12 8 7 6 3 1 0 0 0 0 0 0 0 0

GEFSSE_con_probscp_054.txt.gz
Probability
0 0 0 0 0 0 0 0 0 0 0 0 0 0 0 0 0 0 0 0 0 0 0 0 0 0 0 0 0 0 0 0 0 0 0 0 0 0 0 0 0 0 0
0 0 0 0 0 0 0 0 0 0 0 0 0 0 0 0 0 0 0 0 0 0 0 0 0 0 0 0 0 0 0 0 0 0 0 0 0 0 0 0 0 0 0
0 0 0 0 0 0 0 0 0 0 0 0 0 0 0 0 0 0 0 0 0 0 0 0 0 0 0 0 0 0 0 0 0 0 0 0 0 0 0 0 0 0 0
0 0 0 0 0 0 0 0 0 0 0 0 0 0 0 0 0 0 0 0 0 0 0 0 0 0 0 0 0 0 0 0 0 0 0 0 0 0 0 0 0 0 0
0 0 0 0 0 0 0 0 0 0 0 0 0 0 0 0 0 0 0 0 0 0 0 0 0 0 0 0 0 0 0 0 0 0 0 0 0 0 0 0 0 0 0
0 0 0 0 0 0 0 0 0 0 0 0 0 0 0 0 0 0 0 0 0 0 0 0 0 0 0 0 0 0 0 0 0 0 0 0 0 0 0 0 0 0 0
0 0 0 0 0 0 0 0 0 0 0 0 0 0 0 0 0 0 0 0 0 0 0 0 0 0 0 0 0 0 0 0 0 0 0 0 0 0 0 0 0 0 0
0 0 0 0 0 0 0 0 0 0 0 0 0 0 0 0 0 0 0 0 0 0 0 0 0 0 0 0 0 0 0 0 0 0 0 0 0 0 0 0 0 0 0
0 0 0 0 0 0 0 0 0 0 0 0 0 0 0 0 0 0 1 1 1 1 0 0 0 0 0 0 0 0 0 0 0 0 0 0 1 1 0 0 0 0 0
0 0 0 0 0 0 0 1 1 0 0 0 0 1 0 0 0 1 2 3 3 2 1 1 1 0 0 0 0 0 0 0 0 0 0 1 2 2 1 0 0 0 0
0 0 0 0 0 0 1 2 2 2 2 2 3 4 3 1 1 2 6 9 7 3 2 2 2 1 0 0 2 2 1 0 0 0 2 5 6 3 1 0 0 0 0
0 0 1 1 0 0 0 1 2 4 8 9 9 12 10 6 4 3 9 16 12 5 3 3 3 2 1 1 3 4 2 0 0 0 5 13 12 5 1 0 0 0 0
1 1 2 2 2 2 1 1 2 6 13 16 18 22 21 16 11 8 11 14 11 7 5 5 6 4 3 2 3 3 2 1 2 3 10 18 16 6 1 0 0 0 0
2 2 4 6 8 9 8 8 8 11 18 23 28 32 31 28 22 19 21 17 12 10 10 11 11 9 6 3 2 2 3 5 7 11 18 20 15 6 1 0 0 0 0
4 5 8 12 18 25 28 28 25 24 25 28 33 37 39 37 31 32 38 35 24 20 24 26 23 19 16 10 7 7 9 11 14 21 27 23 16 10 4 0 0 0 0
8 9 13 21 32 43 50 49 42 34 30 30 34 37 39 40 41 43 48 48 42 41 48 50 45 40 36 30 25 25 24 23 25 30 34 31 25 18 10 5 4 4 4
15 17 22 29 41 55 62 59 49 38 33 35 39 41 41 41 46 51 51 53 57 60 66 69 67 64 60 54 50 49 47 42 40 40 42 43 39 30 22 17 16 15 14
28 31 35 38 45 58 66 64 53 43 41 43 46 47 46 42 43 49 51 53 60 67 73 76 77 77 75 69 65 61 60 56 50 47 48 50 49 41 34 31 30 29 26
46 45 45 46 48 55 62 63 57 49 46 45 45 45 43 38 37 42 46 48 57 69 76 77 78 81 80 73 63 56 54 55 53 48 45 46 47 43 37 37 35 31 29
58 54 49 47 47 48 50 51 48 42 37 33 32 33 33 30 31 35 39 42 49 61 68 69 72 77 80 72 58 50 49 50 49 45 39 38 39 36 33 35 35 31 28
61 57 50 43 39 38 37 35 34 29 22 16 16 17 19 20 23 29 34 36 40 46 50 55 62 69 74 72 65 57 51 47 45 41 37 36 33 29 28 32 36 36 36
60 55 47 37 29 26 25 23 22 18 10 5 6 7 8 10 14 20 26 29 30 33 36 42 53 63 68 71 72 66 55 46 42 39 38 37 33 29 27 28 34 38 38
52 46 37 29 22 19 17 14 12 8 4 1 1 2 3 5 7 11 16 20 23 25 27 33 44 55 61 67 71 71 63 51 44 39 38 39 38 34 29 25 24 27 28
35 31 27 24 22 20 18 14 9 5 2 0 0 0 1 1 3 5 8 12 16 18 21 25 33 45 54 59 65 72 70 62 53 43 38 38 39 35 31 26 22 21 21
22 21 22 24 28 29 27 25 21 13 7 4 2 1 0 0 1 2 3 7 10 14 18 22 28 36 43 49 57 66 70 68 61 51 43 43 42 37 33 31 28 24 22
19 18 20 25 32 36 35 36 34 23 13 9 5 2 1 1 2 2 2 5 9 12 17 22 26 31 36 44 52 58 66 67 61 54 50 50 49 43 37 34 30 26 22